Location: Newark
(33.8183°N, 118.0392°W)
Time: 07:00:59
(UTC+00:00)

LightSail 2 - Pass Details

Date: 25 October 2019
Orbit: 698 x 729 km, 24.0° (Epoch: 21 November)

Event Time Altitude Azimuth Distance (km) Brightness Sun altitude
Rises 01:29:14 0° 251° (WSW) 3,062 10.8 -5.2°
Reaches altitude 10° 01:33:38 10° 215° (SW) 2,147 8.4 -6.1°
Maximum altitude 01:34:56 11° 200° (SSW) 2,086 8.0 -6.3°
Drops below altitude 10° 01:36:14 10° 185° (S) 2,149 7.8 -6.6°
Sets 01:40:40 0° 150° (SSE) 3,072 8.2 -7.5°
